Hourly Data Report for September 28, 2017

All times are specified in Local Standard Time (LST). Add 1 hour to adjust for Daylight Saving Time where and when it is observed.

POINT LEPREAU CS
NEW BRUNSWICK

45°04'23.040" N
66°26'57.090" W
6.00 m
8104201
71699
WPE

Download Data

Hourly Data (September 2017)
Hourly Data Report for September 28, 2017
Temp Definition
°C
Dew Point Temp Definition
°C
Rel Hum Definition
%
Wind Dir Definition
10's deg

Wind Spd Definition
km/h
Visibility Definition
km
Stn Press Definition
kPa
Hmdx Definition


Wind Chill Definition


Weather Definition


TIME
00:00 16.5 LegendMM 100 21 10   100.52     LegendNANA
01:00 16.2 LegendMM 100 22 8   100.48     LegendNANA
02:00 16.3 LegendMM 100 21 10   100.43     LegendNANA
03:00 15.9 LegendMM 100 21 9   100.34     LegendNANA
04:00 15.9 LegendMM 100 22 6   100.30     LegendNANA
05:00 15.4 LegendMM 100 24 7   100.25     LegendNANA
06:00 15.6 LegendMM 100 24 11   100.20     LegendNANA
07:00 16.7 LegendMM 100 26 7   100.21     LegendNANA
08:00 16.2 LegendMM 100 32 7   100.22     LegendNANA
09:00 18.3 LegendMM 100 30 1   100.22     LegendNANA
10:00 19.8 19.6 98 31 6   100.27     LegendNANA
11:00 19.9 13.4 66 32 12   100.34     LegendNANA
12:00 20.5 12.3 59 31 12   100.32     LegendNANA
13:00 19.0 12.3 65 32 11   100.29     LegendNANA
14:00 21.0 13.5 62 24 12   100.25     LegendNANA
15:00 21.8 10.5 49 31 12   100.22     LegendNANA
16:00 20.9 10.2 50 33 16   100.28     LegendNANA
17:00 19.6 9.8 53 32 13   100.31     LegendNANA
18:00
19:00
20:00 13.2 7.9 71 32 8   100.58     LegendNANA
21:00 11.5 7.4 76 32 5   100.62     LegendNANA
22:00 11.9 7.0 72 33 11   100.70     LegendNANA
23:00 10.6 6.0 73 32 8   100.71     LegendNANA

Notes on Data Quality.

Legend

  • E = Estimated
  • M = Missing
  • NA = Not Available
  • ‡ = Partner data that is not subject to review by the National Climate Archives
Date modified: